Location: Newark
(43.0000°N, 1.6781°W)
Time: 05:15:21
(UTC+00:00)

XW-2C - Pass Details

Date: 06 December 2022
Orbit: 491 x 506 km, 97.5° (Epoch: 28 January)

Event Time Altitude Azimuth Distance (km) Brightness Sun altitude
Rises 17:42:41 0° 178° (S) 2,592 ? -12.5°
Reaches altitude 10° 17:44:48 10° 184° (S) 1,708 ? -12.9°
Maximum altitude 17:48:23 49° 260° (W) 653 ? -13.5°
Drops below altitude 10° 17:51:58 10° 337° (NNW) 1,710 ? -14.1°
Sets 17:54:06 0° 343° (NNW) 2,595 ? -14.5°
